Location: Canet
(43.3261°N, 5.3723°E)
Time: 03:06:32
(UTC+00:00)

Envisat - Pass Details

Date: 29 September 2021
Orbit: 764 x 766 km, 98.2° (Epoch: 23 October)

Event Time Altitude Azimuth Distance (km) Brightness Sun altitude
Rises 04:48:09 0° 14° (NNE) 3,241 6.5 -9.1°
Reaches altitude 10° 04:50:28 10° 15° (NNE) 2,310 5.8 -8.7°
Maximum altitude 04:55:35 81° 103° (ESE) 778 3.2 -7.8°
Drops below altitude 10° 05:00:38 10° 191° (S) 2,293 5.3 -6.8°
Sets 05:02:56 0° 192° (SSW) 3,214 6.1 -6.4°
